This is the latest recevied weather packets stored in our database for station/object K4AVM-13. If no packets are shown the sender has not sent any weather packets the latest 10 day(s).
| Time | Temp. | Humidity | Pressure | Rain* | Wind** | Luminosity | Snow |
|---|---|---|---|---|---|---|---|
| 1778021540 | 26.11° C | 41% | 1013.1 hPa | 0 mm | - | 37 W/m² | - |
| 1778021235 | 26.11° C | 41% | 1013.1 hPa | 0 mm | - | 37 W/m² | - |
| 1778020933 | 26.11° C | 41% | 1013.1 hPa | 0 mm | - | 40 W/m² | - |
| 1778020630 | 26.11° C | 40% | 1013.2 hPa | 0 mm | - | 51 W/m² | - |
| 1778020326 | 26.67° C | 40% | 1013.3 hPa | 0 mm | - | 57 W/m² | - |
| 1778020022 | 26.67° C | 40% | 1013.2 hPa | 0 mm | - | 60 W/m² | - |
| 1778019718 | 26.67° C | 39% | 1013 hPa | 0 mm | - | 66 W/m² | - |
| 1778019416 | 26.67° C | 38% | 1013.1 hPa | 0 mm | - | 69 W/m² | - |
| 1778019112 | 27.22° C | 38% | 1013.1 hPa | 0 mm | - | 116 W/m² | - |
| 1778018809 | 27.22° C | 38% | 1013 hPa | 0 mm | - | 104 W/m² | - |
| 1778018507 | 27.22° C | 37% | 1012.9 hPa | 0 mm | - | 97 W/m² | - |
| 1778018205 | 27.22° C | 38% | 1013 hPa | 0 mm | - | 121 W/m² | - |
| 1778017902 | 27.22° C | 37% | 1012.8 hPa | 0 mm | - | 135 W/m² | - |
| 1778017600 | 27.22° C | 36% | 1013 hPa | 0 mm | - | 125 W/m² | - |
| 1778017297 | 27.22° C | 37% | 1012.7 hPa | 0 mm | - | 119 W/m² | - |
| 1778016995 | 27.78° C | 35% | 1012.8 hPa | 0 mm | - | 119 W/m² | - |
| 1778016691 | 27.78° C | 34% | 1012.8 hPa | 0 mm | - | 156 W/m² | - |
| 1778016387 | 28.33° C | 33% | 1012.8 hPa | 0 mm | - | 159 W/m² | - |
| 1778016085 | 28.33° C | 33% | 1012.9 hPa | 0 mm | - | 259 W/m² | - |
| 1778015782 | 28.33° C | 33% | 1013 hPa | 0 mm | - | 169 W/m² | - |
| 1778015479 | 28.89° C | 32% | 1012.8 hPa | 0 mm | - | 207 W/m² | - |
| 1778015175 | 28.33° C | 32% | 1012.8 hPa | 0 mm | - | 308 W/m² | - |
| 1778014872 | 28.89° C | 32% | 1013 hPa | 0 mm | - | 310 W/m² | - |
| 1778014570 | 28.33° C | 31% | 1013 hPa | 0 mm | - | 291 W/m² | - |
| 1778014268 | 28.33° C | 32% | 1012.9 hPa | 0 mm | - | 154 W/m² | - |
* Rain latest hour (hover to see other rain measurements)
** Current wind speed in m/s (hover to see current wind gust speed)